Regional Weather Roundup
Issued by NWS

Home | Current Version | Previous Version | Graphics & Text | Print | Product List | Glossary On
Versions: 1 2 3 4 5 6 7 8 9 10 11 12 13 14 15 16 17 18 19 20 21 22 23 24 25 26 27 28 29 30 31 32 33 34 35 36 37 38 39 40 41 42 43 44 45 46 47 48 49 50
168
ASUS43 KIND 221459
RWRIN

WEATHER ROUNDUP FOR INDIANA
NATIONAL WEATHER SERVICE INDIANAPOLIS IN
1000 AM EST MON JAN 22 2018

NOTE: "FAIR" INDICATES FEW OR NO CLOUDS BELOW 12,000 FEET WITH NO
SIGNIFICANT WEATHER AND/OR OBSTRUCTIONS TO VISIBILITY.

* - STATION DOES NOT REPORT WEATHER SUCH AS PRECIPITATION OR FOG.

+ - STATION NOT QUALITY CONTROLLED BY THE NATIONAL WEATHER SERVICE.
    USE DATA WITH CAUTION...ESPECIALLY DEWPOINT AND RELATIVE
    HUMIDITY OBSERVATIONS.

INZ001>003-010>013-019-020-221600-
NORTHWEST INDIANA

CITY           SKY/WX    TMP DP  RH WIND       PRES   REMARKS
GARY /AIRPORT/ CLOUDY    52  50  93 S13       29.61R
KNOX *+        CLOUDY    50  46  87 S18G26    29.67R
MONTICELLO +   CLOUDY    50  48  95 S14G21    29.68S

$$

LMZ046-743>745-221600-
SOUTHERN LAKE MICHIGAN

STATION/POSITION TIME  TEMP    WIND        PRES    WAVE
                       AIR SEA DIR/SP/G            HT
                 (UTC) (F)     (DEG/KT/KT) (MB)    (FT)
BURNS HARBOR     1440   51     180/ 21/ 28 1003.4F
MICHIGAN CITY    1430   50     160/ 19/ 24   N/A

$$

INZ004-005-014>016-021>024-221600-
NORTH CENTRAL INDIANA

CITY           SKY/WX    TMP DP  RH WIND       PRES   REMARKS
ELKHART        LGT RAIN  48  46  93 S15G21    29.69F
GOSHEN         LGT RAIN  51  46  83 S21       29.70F
PERU/GRISSOM   PTSUNNY   50  50 100 S22G33    29.73F
SOUTH BEND     RAIN      50  46  86 S18G29    29.67F FOG

$$

INZ006>009-017-018-025>027-221600-
NORTHEAST INDIANA

CITY           SKY/WX    TMP DP  RH WIND       PRES   REMARKS
FORT WAYNE     LGT RAIN  52  46  80 S20       29.79R
KENDALLVILLE + LGT RAIN  49  49 100 S16G23    29.77R

$$

INZ028-029-035-036-043>045-051>053-221600-
WEST CENTRAL INDIANA

CITY           SKY/WX    TMP DP  RH WIND       PRES   REMARKS
LAFAYETTE      PTSUNNY   51  48  89 S17G30    29.70R
TERRE HAUTE    CLOUDY    51  48  89 S17G25    29.74S

$$

INZ030>032-037>040-046>048-054>057-064-065-221600-
CENTRAL INDIANA

CITY           SKY/WX    TMP DP  RH WIND       PRES   REMARKS
ANDERSON       CLOUDY    52  46  82 S17G29    29.84R
COLUMBUS       LGT RAIN  50  46  87 S14       29.86R
INDIANAPOLIS   RAIN      51  49  92 S23G36    29.80F FOG
-EAGLE CREEK   RAIN      51  48  89 S13G25    29.78F FOG
MT COMFORT *+  CLOUDY    48  48 100 S10       29.83F
SHELBYVILLE    NOT AVBL

$$

INZ033-034-041-042-049-050-058-059-221600-
EAST CENTRAL INDIANA

CITY           SKY/WX    TMP DP  RH WIND       PRES   REMARKS
MUNCIE         LGT RAIN  54  45  71 S15G29    29.82R
RICHMOND +     PTSUNNY   46  45  93 S14       29.85R

$$

INZ060-061-067>069-081>083-085>088-221600-
SOUTHWEST INDIANA

CITY           SKY/WX    TMP DP  RH WIND       PRES   REMARKS
EVANSVILLE     LGT RAIN  51  51 100 S8        29.81F
HUNTINGBURG +  RAIN      51  48  89 SE12      29.84F

$$

INZ062-063-066-070>080-084-089>092-221600-
SOUTH CENTRAL AND SOUTHEAST INDIANA

CITY           SKY/WX    TMP DP  RH WIND       PRES   REMARKS
BLOOMINGTON    RAIN      52  48  86 S18G28    29.80F FOG
SEYMOUR +      LGT RAIN  52  46  82 S6        29.87R

$$





USA.gov is the U.S. government's official web portal to all federal, state and local government web resources and services.